Tracking 23726 objects as of 25-Sep-2021
HD Live streaming from Space Station
objects crossing your sky now

STARLINK-1224

Track STARLINK-1224 now!
10-day predictions
STARLINK-1224 is classified as:


NORAD ID: 45186
Int'l Code: 2020-012J
Perigee: 552.7 km
Apogee: 556.0 km
Inclination: 53.1 °
Period: 95.6 minutes
Semi major axis: 6925 km
RCS: Unknown
Launch date: February 17, 2020
Source: United States (US)
Launch site: AIR FORCE EASTERN TEST RANGE (AFETR)
aabbcc
Your satellite tracking list
Your tracking list is empty




NASA's NSSDC Master Catalog

Two Line Element Set (TLE):
1 45186U 20012J   21267.88800076  .00001712  00000-0  13382-3 0  9995
2 45186  53.0541 149.6167 0002399  68.9665 291.1581 15.06407690 89586
Source of the keplerian elements: AFSPC